Location: Ottawa
(45.4170°N, 75.7000°W)
Time: 06:35:46
(UTC-05:00)

ISS - Pass Details

Date: 15 February 2026
Orbit: 416 x 427 km, 51.6° (Epoch: 5 March)

Event Time Altitude Azimuth Distance (km) Brightness Sun altitude
Exits shadow 04:14:19 10° 113° (ESE) 1,489 -0.4 -30.3°
Drops below altitude 10° 04:14:20 10° 113° (ESE) 1,491 -0.4 -30.3°
Sets 04:17:40 0° 77° (ENE) 2,358 1.3 -29.7°
